Time,TemperatureF,DewpointF,PressureIn,WindDirection,WindDirectionDegrees,WindSpeedMPH,WindSpeedGustMPH,Humidity,HourlyPrecipIn,Conditions,Clouds,dailyrainin,SoftwareType,DateUTC
2013-03-15 00:03:00,32.0,24.0,-100.00,South,185,7.0,10.0,72,-99.99,,,-99.99,,2013-03-15 04:03:00,
2013-03-15 00:12:00,31.0,24.0,-100.00,SSW,205,7.0,9.0,74,-99.99,,,-99.99,,2013-03-15 04:12:00,
2013-03-15 00:23:00,32.0,25.0,-100.00,SSW,205,9.0,12.0,74,-99.99,,,-99.99,,2013-03-15 04:23:00,
2013-03-15 00:33:00,32.0,25.0,-100.00,SSW,200,9.0,11.0,73,-99.99,,,-99.99,,2013-03-15 04:33:00,
2013-03-15 00:43:00,33.0,25.0,-100.00,SSW,210,9.0,12.0,72,-99.99,,,-99.99,,2013-03-15 04:43:00,
2013-03-15 00:52:00,33.0,25.0,-100.00,SSW,210,9.0,12.0,72,-99.99,,,-99.99,,2013-03-15 04:52:00,
2013-03-15 01:02:00,32.0,25.0,-100.00,SSW,205,9.0,11.0,73,-99.99,,,-99.99,,2013-03-15 05:02:00,
2013-03-15 01:12:00,32.0,25.0,-100.00,SSW,200,9.0,12.0,73,-99.99,,,-99.99,,2013-03-15 05:12:00,
2013-03-15 01:22:00,32.0,25.0,-100.00,SSW,205,9.0,12.0,73,-99.99,,,-99.99,,2013-03-15 05:22:00,
2013-03-15 01:32:00,32.0,24.0,-100.00,SSW,205,9.0,12.0,72,-99.99,,,-99.99,,2013-03-15 05:32:00,
2013-03-15 01:42:00,32.0,24.0,-100.00,SSW,210,7.0,10.0,72,-99.99,,,-99.99,,2013-03-15 05:42:00,
2013-03-15 01:52:00,33.0,24.0,-100.00,SSW,195,9.0,12.0,71,-99.99,,,-99.99,,2013-03-15 05:52:00,
2013-03-15 02:02:00,33.0,24.0,-100.00,SSW,195,9.0,10.0,70,-99.99,,,-99.99,,2013-03-15 06:02:00,
2013-03-15 02:12:00,33.0,24.0,-100.00,SSW,195,7.0,10.0,71,-99.99,,,-99.99,,2013-03-15 06:12:00,
2013-03-15 02:22:00,33.0,24.0,-100.00,South,190,8.0,10.0,71,-99.99,,,-99.99,,2013-03-15 06:22:00,
2013-03-15 02:32:00,33.0,24.0,-100.00,SSW,205,9.0,12.0,70,-99.99,,,-99.99,,2013-03-15 06:32:00,
2013-03-15 02:42:00,33.0,24.0,-100.00,SSW,205,10.0,12.0,69,-99.99,,,-99.99,,2013-03-15 06:42:00,
2013-03-15 02:52:00,33.0,24.0,-100.00,South,190,9.0,13.0,68,-99.99,,,-99.99,,2013-03-15 06:52:00,
2013-03-15 03:02:00,33.0,24.0,-100.00,South,190,8.0,12.0,68,-99.99,,,-99.99,,2013-03-15 07:02:00,
2013-03-15 03:12:00,33.0,24.0,-100.00,South,190,9.0,11.0,68,-99.99,,,-99.99,,2013-03-15 07:12:00,
2013-03-15 03:22:00,33.0,24.0,-100.00,South,185,9.0,13.0,68,-99.99,,,-99.99,,2013-03-15 07:22:00,
2013-03-15 03:32:00,33.0,24.0,-100.00,South,185,7.0,11.0,69,-99.99,,,-99.99,,2013-03-15 07:32:00,
2013-03-15 03:42:00,33.0,25.0,-100.00,SSW,195,8.0,11.0,70,-99.99,,,-99.99,,2013-03-15 07:42:00,
2013-03-15 03:52:00,33.0,25.0,-100.00,South,190,7.0,12.0,70,-99.99,,,-99.99,,2013-03-15 07:52:00,
2013-03-15 04:02:00,34.0,25.0,-100.00,South,185,9.0,12.0,70,-99.99,,,-99.99,,2013-03-15 08:02:00,
2013-03-15 04:12:00,34.0,25.0,-100.00,South,185,8.0,11.0,70,-99.99,,,-99.99,,2013-03-15 08:12:00,
2013-03-15 04:23:00,33.0,25.0,-100.00,South,180,7.0,10.0,71,-99.99,,,-99.99,,2013-03-15 08:23:00,
2013-03-15 04:33:00,33.0,25.0,-100.00,South,180,9.0,12.0,72,-99.99,,,-99.99,,2013-03-15 08:33:00,
2013-03-15 04:42:00,33.0,25.0,-100.00,South,180,8.0,12.0,73,-99.99,,,-99.99,,2013-03-15 08:42:00,
2013-03-15 04:52:00,33.0,26.0,-100.00,SSW,195,9.0,14.0,75,-99.99,,,-99.99,,2013-03-15 08:52:00,
2013-03-15 05:02:00,33.0,26.0,-100.00,SSW,195,9.0,14.0,77,-99.99,,,-99.99,,2013-03-15 09:02:00,
2013-03-15 05:12:00,33.0,27.0,-100.00,South,190,9.0,12.0,78,-99.99,,,-99.99,,2013-03-15 09:12:00,
2013-03-15 05:22:00,33.0,27.0,-100.00,South,185,9.0,12.0,79,-99.99,,,-99.99,,2013-03-15 09:22:00,
2013-03-15 05:33:00,32.0,27.0,-100.00,South,190,9.0,13.0,81,-99.99,,,-99.99,,2013-03-15 09:33:00,
2013-03-15 05:43:00,32.0,27.0,-100.00,South,190,9.0,13.0,82,-99.99,,,-99.99,,2013-03-15 09:43:00,
2013-03-15 05:52:00,32.0,28.0,-100.00,South,180,9.0,13.0,83,-99.99,,,-99.99,,2013-03-15 09:52:00,
2013-03-15 06:03:00,32.0,28.0,-100.00,South,180,10.0,13.0,83,-99.99,,,-99.99,,2013-03-15 10:03:00,
2013-03-15 06:13:00,32.0,28.0,-100.00,South,190,11.0,14.0,84,-99.99,,,-99.99,,2013-03-15 10:13:00,
2013-03-15 06:23:00,33.0,29.0,-100.00,SSW,200,14.0,20.0,85,-99.99,,,-99.99,,2013-03-15 10:23:00,
2013-03-15 06:33:00,33.0,29.0,-100.00,SSW,210,17.0,21.0,87,-99.99,,,-99.99,,2013-03-15 10:33:00,
2013-03-15 06:42:00,32.0,29.0,-100.00,SW,220,12.0,20.0,89,-99.99,,,-99.99,,2013-03-15 10:42:00,
2013-03-15 06:52:00,32.0,29.0,-100.00,SW,220,12.0,20.0,89,-99.99,,,-99.99,,2013-03-15 10:52:00,
2013-03-15 07:03:00,31.0,29.0,-100.00,SSW,205,10.0,14.0,91,-99.99,,,-99.99,,2013-03-15 11:03:00,
2013-03-15 07:12:00,31.0,29.0,-100.00,SSW,200,9.0,14.0,92,-99.99,,,-99.99,,2013-03-15 11:12:00,
2013-03-15 07:23:00,31.0,29.0,-100.00,SSW,200,9.0,12.0,92,-99.99,,,-99.99,,2013-03-15 11:23:00,
2013-03-15 07:32:00,31.0,29.0,-100.00,SSW,200,10.0,13.0,93,-99.99,,,-99.99,,2013-03-15 11:32:00,
2013-03-15 07:42:00,31.0,29.0,-100.00,South,190,11.0,12.0,93,-99.99,,,-99.99,,2013-03-15 11:42:00,
2013-03-15 08:02:00,31.0,30.0,-100.00,SSW,195,12.0,16.0,94,-99.99,,,-99.99,,2013-03-15 12:02:00,
2013-03-15 08:12:00,31.0,30.0,-100.00,SSW,200,12.0,17.0,95,-99.99,,,-99.99,,2013-03-15 12:12:00,
2013-03-15 08:23:00,31.0,30.0,-100.00,South,180,7.0,16.0,95,-99.99,,,-99.99,,2013-03-15 12:23:00,
2013-03-15 08:32:00,31.0,30.0,-100.00,South,185,7.0,11.0,96,-99.99,,,-99.99,,2013-03-15 12:32:00,
2013-03-15 08:42:00,31.0,31.0,-100.00,South,170,7.0,11.0,96,-99.99,,,-99.99,,2013-03-15 12:42:00,
2013-03-15 08:52:00,32.0,31.0,-100.00,South,175,9.0,11.0,96,-99.99,,,-99.99,,2013-03-15 12:52:00,
2013-03-15 09:02:00,32.0,31.0,-100.00,South,185,8.0,13.0,96,-99.99,,,-99.99,,2013-03-15 13:02:00,
2013-03-15 09:12:00,33.0,32.0,-100.00,South,180,7.0,14.0,96,-99.99,,,-99.99,,2013-03-15 13:12:00,
2013-03-15 09:22:00,33.0,32.0,-100.00,South,180,10.0,13.0,96,-99.99,,,-99.99,,2013-03-15 13:22:00,
2013-03-15 09:32:00,33.0,32.0,-100.00,South,190,11.0,15.0,95,-99.99,,,-99.99,,2013-03-15 13:32:00,
2013-03-15 09:42:00,34.0,32.0,-100.00,SSW,200,12.0,15.0,92,-99.99,,,-99.99,,2013-03-15 13:42:00,
2013-03-15 09:52:00,34.0,31.0,-100.00,SSW,195,11.0,15.0,90,-99.99,,,-99.99,,2013-03-15 13:52:00,
2013-03-15 10:02:00,34.0,31.0,-100.00,SSW,200,12.0,16.0,89,-99.99,,,-99.99,,2013-03-15 14:02:00,
2013-03-15 10:12:00,35.0,32.0,-100.00,SSW,210,12.0,16.0,88,-99.99,,,-99.99,,2013-03-15 14:12:00,
2013-03-15 10:22:00,35.0,32.0,-100.00,SSW,210,14.0,18.0,87,-99.99,,,-99.99,,2013-03-15 14:22:00,
2013-03-15 10:32:00,36.0,32.0,-100.00,SSW,195,9.0,17.0,85,-99.99,,,-99.99,,2013-03-15 14:32:00,
2013-03-15 10:42:00,36.0,32.0,-100.00,South,190,11.0,17.0,84,-99.99,,,-99.99,,2013-03-15 14:42:00,
2013-03-15 10:52:00,37.0,32.0,-100.00,South,185,11.0,18.0,83,-99.99,,,-99.99,,2013-03-15 14:52:00,
2013-03-15 11:02:00,37.0,32.0,-100.00,SSW,210,12.0,17.0,81,-99.99,,,-99.99,,2013-03-15 15:02:00,
2013-03-15 11:13:00,37.0,32.0,-100.00,South,190,12.0,17.0,80,-99.99,,,-99.99,,2013-03-15 15:13:00,
2013-03-15 11:23:00,38.0,32.0,-100.00,SSW,200,12.0,18.0,79,-99.99,,,-99.99,,2013-03-15 15:23:00,
2013-03-15 11:33:00,39.0,32.0,-100.00,SSW,195,14.0,18.0,77,-99.99,,,-99.99,,2013-03-15 15:33:00,
2013-03-15 11:42:00,39.0,32.0,-100.00,South,190,14.0,17.0,76,-99.99,,,-99.99,,2013-03-15 15:42:00,
2013-03-15 11:52:00,39.0,32.0,-100.00,SSW,205,14.0,17.0,76,-99.99,,,-99.99,,2013-03-15 15:52:00,
2013-03-15 12:03:00,39.0,32.0,-100.00,SSW,210,12.0,17.0,76,-99.99,,,-99.99,,2013-03-15 16:03:00,
2013-03-15 12:12:00,40.0,33.0,-100.00,SW,220,11.0,15.0,75,-99.99,,,-99.99,,2013-03-15 16:12:00,
2013-03-15 12:23:00,40.0,33.0,-100.00,SSW,200,12.0,17.0,74,-99.99,,,-99.99,,2013-03-15 16:23:00,
2013-03-15 12:32:00,40.0,33.0,-100.00,SW,215,12.0,17.0,74,-99.99,,,-99.99,,2013-03-15 16:32:00,
2013-03-15 12:42:00,40.0,33.0,-100.00,SSW,200,13.0,16.0,74,-99.99,,,-99.99,,2013-03-15 16:42:00,
2013-03-15 12:52:00,41.0,33.0,-100.00,SSW,195,11.0,16.0,74,-99.99,,,-99.99,,2013-03-15 16:52:00,
2013-03-15 13:02:00,41.0,33.0,-100.00,SSW,205,11.0,16.0,73,-99.99,,,-99.99,,2013-03-15 17:02:00,
2013-03-15 13:12:00,41.0,33.0,-100.00,SW,225,12.0,18.0,73,-99.99,,,-99.99,,2013-03-15 17:12:00,
2013-03-15 13:22:00,41.0,33.0,-100.00,SSW,205,14.0,19.0,73,-99.99,,,-99.99,,2013-03-15 17:22:00,
2013-03-15 13:32:00,42.0,34.0,-100.00,SW,215,12.0,16.0,72,-99.99,,,-99.99,,2013-03-15 17:32:00,
2013-03-15 13:42:00,42.0,34.0,-100.00,SW,220,11.0,15.0,72,-99.99,,,-99.99,,2013-03-15 17:42:00,
2013-03-15 13:52:00,42.0,34.0,-100.00,SW,215,8.0,16.0,72,-99.99,,,-99.99,,2013-03-15 17:52:00,
2013-03-15 14:03:00,42.0,34.0,-100.00,SW,215,12.0,17.0,72,-99.99,,,-99.99,,2013-03-15 18:03:00,
2013-03-15 14:12:00,43.0,35.0,-100.00,SSW,210,12.0,16.0,72,-99.99,,,-99.99,,2013-03-15 18:12:00,
2013-03-15 14:22:00,43.0,35.0,-100.00,SSW,210,11.0,16.0,71,-99.99,,,-99.99,,2013-03-15 18:22:00,
2013-03-15 14:32:00,43.0,35.0,-100.00,SSW,200,12.0,14.0,71,-99.99,,,-99.99,,2013-03-15 18:32:00,
2013-03-15 14:42:00,44.0,35.0,-100.00,SSW,200,9.0,13.0,71,-99.99,,,-99.99,,2013-03-15 18:42:00,
2013-03-15 14:52:00,44.0,35.0,-100.00,SSW,210,7.0,13.0,70,-99.99,,,-99.99,,2013-03-15 18:52:00,
2013-03-15 15:02:00,44.0,35.0,-100.00,SW,220,7.0,14.0,70,-99.99,,,-99.99,,2013-03-15 19:02:00,
2013-03-15 15:12:00,44.0,35.0,-100.00,SW,215,7.0,12.0,70,-99.99,,,-99.99,,2013-03-15 19:12:00,
2013-03-15 15:22:00,45.0,36.0,-100.00,SW,235,7.0,15.0,70,-99.99,,,-99.99,,2013-03-15 19:22:00,
2013-03-15 15:32:00,44.0,35.0,-100.00,SW,220,10.0,14.0,68,-99.99,,,-99.99,,2013-03-15 19:32:00,
2013-03-15 15:42:00,45.0,35.0,-100.00,SW,225,11.0,14.0,67,-99.99,,,-99.99,,2013-03-15 19:42:00,
2013-03-15 15:52:00,46.0,36.0,-100.00,SW,225,9.0,16.0,67,-99.99,,,-99.99,,2013-03-15 19:52:00,
2013-03-15 16:02:00,45.0,35.0,-100.00,SW,225,10.0,13.0,67,-99.99,,,-99.99,,2013-03-15 20:02:00,
2013-03-15 16:12:00,46.0,36.0,-100.00,WSW,240,7.0,16.0,66,-99.99,,,-99.99,,2013-03-15 20:12:00,
2013-03-15 16:22:00,46.0,35.0,-100.00,WSW,250,11.0,15.0,66,-99.99,,,-99.99,,2013-03-15 20:22:00,
2013-03-15 16:32:00,46.0,36.0,-100.00,WSW,245,8.0,12.0,67,-99.99,,,-99.99,,2013-03-15 20:32:00,
2013-03-15 16:42:00,45.0,35.0,-100.00,SW,235,8.0,15.0,67,-99.99,,,-99.99,,2013-03-15 20:42:00,
2013-03-15 16:52:00,46.0,35.0,-100.00,SW,230,11.0,17.0,66,-99.99,,,-99.99,,2013-03-15 20:52:00,
2013-03-15 17:02:00,46.0,35.0,-100.00,WSW,240,10.0,17.0,66,-99.99,,,-99.99,,2013-03-15 21:02:00,
2013-03-15 17:12:00,46.0,35.0,-100.00,WSW,245,9.0,14.0,67,-99.99,,,-99.99,,2013-03-15 21:12:00,
2013-03-15 17:22:00,46.0,36.0,-100.00,WSW,250,11.0,15.0,67,-99.99,,,-99.99,,2013-03-15 21:22:00,
2013-03-15 17:33:00,45.0,36.0,-100.00,West,260,9.0,14.0,68,-99.99,,,-99.99,,2013-03-15 21:33:00,
2013-03-15 17:43:00,45.0,36.0,-100.00,WSW,245,9.0,14.0,69,-99.99,,,-99.99,,2013-03-15 21:43:00,
2013-03-15 17:52:00,45.0,36.0,-100.00,West,260,9.0,13.0,70,-99.99,,,-99.99,,2013-03-15 21:52:00,
2013-03-15 18:04:00,45.0,36.0,-100.00,West,260,7.0,12.0,70,-99.99,,,-99.99,,2013-03-15 22:04:00,
2013-03-15 18:13:00,45.0,36.0,-100.00,WSW,245,7.0,11.0,71,-99.99,,,-99.99,,2013-03-15 22:13:00,
2013-03-15 18:22:00,45.0,36.0,-100.00,WSW,240,6.0,11.0,70,-99.99,,,-99.99,,2013-03-15 22:22:00,
2013-03-15 18:32:00,45.0,37.0,-100.00,WSW,240,9.0,12.0,71,-99.99,,,-99.99,,2013-03-15 22:32:00,
2013-03-15 18:42:00,45.0,37.0,-100.00,SW,235,8.0,12.0,72,-99.99,,,-99.99,,2013-03-15 22:42:00,
2013-03-15 18:52:00,45.0,37.0,-100.00,WSW,245,4.0,9.0,72,-99.99,,,-99.99,,2013-03-15 22:52:00,
2013-03-15 19:03:00,45.0,37.0,-100.00,SW,235,7.0,10.0,73,-99.99,,,-99.99,,2013-03-15 23:03:00,
2013-03-15 19:12:00,44.0,37.0,-100.00,SSW,210,7.0,11.0,74,-99.99,,,-99.99,,2013-03-15 23:12:00,
2013-03-15 19:22:00,44.0,37.0,-100.00,SW,220,7.0,10.0,75,-99.99,,,-99.99,,2013-03-15 23:22:00,
2013-03-15 19:32:00,44.0,37.0,-100.00,SW,230,4.0,9.0,77,-99.99,,,-99.99,,2013-03-15 23:32:00,
2013-03-15 19:42:00,44.0,37.0,-100.00,WSW,250,4.0,6.0,78,-99.99,,,-99.99,,2013-03-15 23:42:00,
2013-03-15 19:52:00,43.0,37.0,-100.00,SW,230,4.0,6.0,79,-99.99,,,-99.99,,2013-03-15 23:52:00,
2013-03-15 20:03:00,43.0,37.0,-100.00,WSW,245,3.0,4.0,80,-99.99,,,-99.99,,2013-03-16 00:03:00,
2013-03-15 20:12:00,42.0,38.0,-100.00,WSW,255,2.0,3.0,82,-99.99,,,-99.99,,2013-03-16 00:12:00,
2013-03-15 20:22:00,42.0,38.0,-100.00,West,270,1.0,2.0,83,-99.99,,,-99.99,,2013-03-16 00:22:00,
2013-03-15 20:32:00,42.0,38.0,-100.00,WSW,240,1.0,1.0,84,-99.99,,,-99.99,,2013-03-16 00:32:00,
2013-03-15 20:42:00,42.0,38.0,-100.00,WSW,240,0.0,0.0,85,-99.99,,,-99.99,,2013-03-16 00:42:00,
2013-03-15 20:52:00,42.0,38.0,-100.00,WSW,240,0.0,0.0,87,-99.99,,,-99.99,,2013-03-16 00:52:00,
2013-03-15 21:03:00,41.0,38.0,-100.00,WSW,240,0.0,0.0,87,-99.99,,,-99.99,,2013-03-16 01:03:00,
2013-03-15 21:12:00,41.0,38.0,-100.00,NNW,345,0.0,0.0,89,-99.99,,,-99.99,,2013-03-16 01:12:00,
2013-03-15 21:22:00,41.0,39.0,-100.00,NNE,30,0.0,0.0,90,-99.99,,,-99.99,,2013-03-16 01:22:00,
2013-03-15 21:32:00,41.0,39.0,-100.00,NE,35,1.0,1.0,92,-99.99,,,-99.99,,2013-03-16 01:32:00,
2013-03-15 21:42:00,40.0,39.0,-100.00,NE,50,2.0,2.0,93,-99.99,,,-99.99,,2013-03-16 01:42:00,
2013-03-15 21:52:00,40.0,39.0,-100.00,NE,55,3.0,4.0,94,-99.99,,,-99.99,,2013-03-16 01:52:00,
2013-03-15 22:02:00,40.0,39.0,-100.00,ENE,60,3.0,4.0,95,-99.99,,,-99.99,,2013-03-16 02:02:00,
2013-03-15 22:12:00,40.0,39.0,-100.00,NE,50,3.0,4.0,96,-99.99,,,-99.99,,2013-03-16 02:12:00,
2013-03-15 22:23:00,40.0,39.0,-100.00,ENE,65,6.0,6.0,97,-99.99,,,-99.99,,2013-03-16 02:23:00,
2013-03-15 22:33:00,40.0,39.0,-100.00,NNE,15,1.0,5.0,97,-99.99,,,-99.99,,2013-03-16 02:33:00,
2013-03-15 22:42:00,40.0,39.0,-100.00,NE,50,4.0,4.0,97,-99.99,,,-99.99,,2013-03-16 02:42:00,
2013-03-15 22:52:00,40.0,40.0,-100.00,NE,45,4.0,5.0,98,-99.99,,,-99.99,,2013-03-16 02:52:00,
2013-03-15 23:02:00,40.0,40.0,-100.00,NE,50,4.0,5.0,98,-99.99,,,-99.99,,2013-03-16 03:02:00,
2013-03-15 23:12:00,40.0,39.0,-100.00,NE,50,4.0,6.0,98,-99.99,,,-99.99,,2013-03-16 03:12:00,
2013-03-15 23:22:00,40.0,39.0,-100.00,NE,50,4.0,6.0,98,-99.99,,,-99.99,,2013-03-16 03:22:00,
2013-03-15 23:33:00,40.0,40.0,-100.00,ENE,60,5.0,7.0,99,-99.99,,,-99.99,,2013-03-16 03:33:00,
2013-03-15 23:43:00,39.0,39.0,-100.00,NE,50,7.0,9.0,99,-99.99,,,-99.99,,2013-03-16 03:43:00,
2013-03-15 23:52:00,39.0,39.0,-100.00,NE,50,7.0,9.0,99,-99.99,,,-99.99,,2013-03-16 03:52:00,